Location: Kirtland Hills
(41.6239°N, 81.3071°W)
Time: 07:43:45
(UTC+00:00)

AQUARIUS - Pass Details

Date: 29 October 2020
Orbit: 650 x 653 km, 98.0° (Epoch: 28 November)

Event Time Altitude Azimuth Distance (km) Brightness Sun altitude
Rises 23:00:37 0° 169° (S) 2,960 7.6 -7.6°
Reaches altitude 10° 23:02:50 10° 171° (S) 2,053 6.8 -8.0°
Maximum altitude 23:07:19 77° 257° (WSW) 674 4.4 -8.9°
Drops below altitude 10° 23:11:50 10° 344° (NNW) 2,068 6.8 -9.7°
Sets 23:14:03 0° 346° (NNW) 2,984 7.6 -10.1°
